カタログに戻る

FENGYUN 1C DEB

運用中SSO
NORAD 30328·DEBRIS·🇨🇳 China

打ち上げ May 10, 1999 から Taiyuan Satellite Launch Center

Loading…

次のパス (今後24時間)

TLE

最新Source: Space-Track

元期: Sep 14, 2026, 11:46 UTC

1 30328U 99025AAP 26257.49075212  .00000116  00000-0  85904-4 0  9991
2 30328  98.6844 264.1963 0006538  96.0724  57.0192 14.12597813 11511

AllMySatでFENGYUN 1C DEBをリアルタイム追跡

Download on the App Store